| time (UTC) | temp C | wind direction | speed KPH | gust KPH | rain 1hr cm | rain 24hr cm | rain mn cm | humidity % | barometer mb |
| 20260508065412 | 7 | 225 | 3.2 | 11.3 | 0.00 | 0.00 | 0.00 | 45 | 1010.8 |
| 20260508064511 | 7 | 222 | 4.8 | 11.3 | 0.00 | 0.00 | 0.00 | 47 | 1011.0 |
| 20260508063611 | 7 | 219 | 3.2 | 14.5 | 0.00 | 0.00 | 0.00 | 46 | 1010.9 |
| 20260508062711 | 7 | 228 | 1.6 | 12.9 | 0.00 | 0.00 | 0.00 | 47 | 1010.8 |
| 20260508061811 | 7 | 217 | 3.2 | 11.3 | 0.00 | 0.00 | 0.00 | 47 | 1010.9 |
| 20260508060911 | 7 | 224 | 1.6 | 9.7 | 0.00 | 0.00 | 0.00 | 46 | 1010.9 |
| 20260508060011 | 7 | 216 | 3.2 | 11.3 | 0.00 | 0.00 | 0.00 | 47 | 1010.7 |
| 20260508055111 | 7 | 243 | 4.8 | 12.9 | 0.00 | 0.00 | 0.48 | 46 | 1010.7 |
| 20260508051512 | 8 | 237 | 3.2 | 11.3 | 0.00 | 0.00 | 0.48 | 44 | 1011.1 |
| 20260508050611 | 8 | 234 | 3.2 | 12.9 | 0.00 | 0.00 | 0.48 | 43 | 1010.9 |
| 20260508044812 | 8 | 236 | 3.2 | 9.7 | 0.00 | 0.00 | 0.48 | 42 | 1010.7 |
| 20260508043911 | 8 | 227 | 1.6 | 16.1 | 0.00 | 0.00 | 0.48 | 42 | 1011.0 |
| 20260508043012 | 8 | 248 | 3.2 | 12.9 | 0.00 | 0.00 | 0.48 | 41 | 1011.0 |
| 20260508041212 | 8 | 225 | 3.2 | 11.3 | 0.00 | 0.00 | 0.48 | 41 | 1011.1 |
| 20260508040311 | 9 | 230 | 8.0 | 12.9 | 0.00 | 0.00 | 0.48 | 38 | 1011.2 |
| 20260508035411 | 9 | 233 | 4.8 | 17.7 | 0.00 | 0.00 | 0.48 | 37 | 1011.2 |
| 20260508034511 | 9 | 234 | 8.0 | 14.5 | 0.00 | 0.00 | 0.48 | 35 | 1011.3 |
| 20260508033611 | 9 | 232 | 8.0 | 14.5 | 0.00 | 0.00 | 0.48 | 34 | 1011.2 |
| 20260508032711 | 9 | 241 | 3.2 | 9.7 | 0.00 | 0.00 | 0.48 | 33 | 1010.9 |
| 20260508025112 | 9 | 230 | 0.0 | 4.8 | 0.00 | 0.00 | 0.48 | 31 | 1010.6 |
| 20260508024214 | 9 | 235 | 1.6 | 4.8 | 0.00 | 0.00 | 0.48 | 32 | 1010.6 |
| 20260508022411 | 9 | 224 | 0.0 | 4.8 | 0.00 | 0.00 | 0.48 | 32 | 1010.5 |
| 20260508021511 | 9 | 224 | 0.0 | 6.4 | 0.00 | 0.00 | 0.00 | 33 | 1010.4 |
| 20260508020611 | 9 | 225 | 0.0 | 8.0 | 0.00 | 0.00 | 0.00 | 32 | 1010.4 |
| 20260508015711 | 9 | 209 | 4.8 | 8.0 | 0.00 | 0.00 | 0.00 | 32 | 1010.3 |
| 20260508014811 | 9 | 225 | 0.0 | 1.6 | 0.00 | 0.00 | 0.00 | 31 | 1010.0 |
| 20260508013911 | 10 | 225 | 0.0 | 3.2 | 0.00 | 0.00 | 0.00 | 28 | 1010.1 |
| 20260508012111 | 11 | 229 | 0.0 | 8.0 | 0.00 | 0.00 | 0.00 | 27 | 1010.1 |
| 20260508011212 | 11 | 220 | 3.2 | 8.0 | 0.00 | 0.00 | 0.00 | 24 | 1010.2 |
| 20260508010312 | 12 | 232 | 4.8 | 8.0 | 0.00 | 0.00 | 0.00 | 23 | 1010.1 |
| 20260508005412 | 12 | 236 | 1.6 | 9.7 | 0.00 | 0.00 | 0.00 | 23 | 1009.9 |
| 20260508004511 | 13 | 220 | 4.8 | 8.0 | 0.00 | 0.00 | 0.00 | 24 | 1009.9 |
| 20260508003611 | 12 | 227 | 1.6 | 8.0 | 0.00 | 0.00 | 0.00 | 23 | 1010.2 |
| 20260508002711 | 12 | 227 | 4.8 | 12.9 | 0.00 | 0.00 | 0.00 | 23 | 1010.0 |
| 20260508001811 | 12 | 224 | 4.8 | 9.7 | 0.00 | 0.00 | 0.00 | 23 | 1010.0 |
| 20260508000911 | 13 | 225 | 1.6 | 11.3 | 0.00 | 0.00 | 0.00 | 24 | 1009.8 |
| 20260508000011 | 13 | 225 | 6.4 | 14.5 | 0.00 | 0.00 | 0.00 | 23 | 1009.9 |
| 20260507235111 | 15 | 225 | 4.8 | 14.5 | 0.00 | 0.00 | 0.00 | 22 | 1010.0 |
| 20260507234211 | 12 | 229 | 6.4 | 14.5 | 0.00 | 0.00 | 0.00 | 22 | 1009.8 |
| 20260507233311 | 13 | 227 | 8.0 | 14.5 | 0.00 | 0.00 | 0.00 | 24 | 1010.0 |
| 20260507231512 | 12 | 281 | 1.6 | 14.5 | 0.00 | 0.00 | 0.00 | 24 | 1009.9 |
| 20260507230612 | 12 | 228 | 4.8 | 17.7 | 0.00 | 0.00 | 0.00 | 23 | 1010.1 |
| 20260507225711 | 12 | 222 | 4.8 | 17.7 | 0.00 | 0.00 | 0.00 | 21 | 1010.0 |
| 20260507224811 | 14 | 236 | 4.8 | 20.9 | 0.00 | 0.00 | 0.00 | 22 | 1010.1 |
| 20260507223911 | 13 | 218 | 11.3 | 17.7 | 0.00 | 0.03 | 0.00 | 23 | 1010.2 |
| 20260507223011 | 13 | 225 | 8.0 | 16.1 | 0.00 | 0.08 | 0.00 | 22 | 1010.0 |
| 20260507221211 | 13 | 236 | 4.8 | 11.3 | 0.00 | 0.20 | 0.00 | 25 | 1010.3 |
| 20260507220311 | 14 | 236 | 4.8 | 16.1 | 0.00 | 0.28 | 0.00 | 24 | 1010.3 |
| 20260507215412 | 13 | 262 | 6.4 | 14.5 | 0.00 | 0.28 | 0.00 | 25 | 1010.2 |
| 20260507214511 | 13 | 250 | 4.8 | 14.5 | 0.00 | 0.36 | 0.00 | 24 | 1010.3 |
| 20260507212711 | 13 | 229 | 3.2 | 16.1 | 0.00 | 0.41 | 0.00 | 27 | 1010.7 |
| 20260507211811 | 12 | 228 | 3.2 | 14.5 | 0.00 | 0.41 | 0.00 | 24 | 1010.5 |
| 20260507210911 | 14 | 231 | 9.7 | 17.7 | 0.00 | 0.41 | 0.00 | 26 | 1010.7 |
| 20260507205111 | 13 | 230 | 8.0 | 20.9 | 0.00 | 0.41 | 0.00 | 27 | 1010.6 |
| 20260507204211 | 12 | 212 | 8.0 | 20.9 | 0.00 | 0.41 | 0.00 | 24 | 1010.8 |
| 20260507203312 | 13 | 222 | 8.0 | 14.5 | 0.00 | 0.41 | 0.00 | 30 | 1010.8 |
| 20260507202412 | 12 | 237 | 8.0 | 16.1 | 0.00 | 0.41 | 0.00 | 28 | 1011.1 |
| 20260507201511 | 12 | 225 | 8.0 | 14.5 | 0.00 | 0.41 | 0.00 | 29 | 1010.9 |
| 20260507200611 | 10 | 225 | 4.8 | 11.3 | 0.00 | 0.41 | 0.00 | 29 | 1010.9 |
| 20260507195711 | 11 | 227 | 6.4 | 8.0 | 0.00 | 0.41 | 0.00 | 29 | 1011.2 |
| 20260507194811 | 10 | 223 | 4.8 | 8.0 | 0.00 | 0.41 | 0.00 | 30 | 1011.2 |
| 20260507193911 | 10 | 225 | 4.8 | 9.7 | 0.00 | 0.41 | 0.00 | 32 | 1011.2 |
| 20260507193012 | 9 | 229 | 3.2 | 12.9 | 0.00 | 0.41 | 0.00 | 32 | 1011.5 |
| 20260507191211 | 10 | 232 | 3.2 | 9.7 | 0.00 | 0.41 | 0.00 | 34 | 1011.4 |
| 20260507190311 | 9 | 234 | 3.2 | 11.3 | 0.00 | 0.41 | 0.00 | 35 | 1011.8 |
| 20260507185411 | 10 | 228 | 3.2 | 9.7 | 0.00 | 0.41 | 0.00 | 38 | 1011.6 |
| 20260507184511 | 9 | 223 | 3.2 | 14.5 | 0.00 | 0.41 | 0.00 | 34 | 1011.8 |
| 20260507183611 | 9 | 243 | 3.2 | 9.7 | 0.00 | 0.41 | 0.00 | 37 | 1011.8 |
| 20260507181811 | 9 | 233 | 3.2 | 12.9 | 0.00 | 0.41 | 0.00 | 41 | 1011.8 |
| 20260507180911 | 8 | 255 | 6.4 | 14.5 | 0.00 | 0.41 | 0.00 | 39 | 1011.9 |
| 20260507180011 | 9 | 225 | 1.6 | 12.9 | 0.00 | 0.41 | 0.00 | 36 | 1011.6 |
| 20260507175111 | 10 | 226 | 1.6 | 8.0 | 0.00 | 0.41 | 0.00 | 31 | 1011.4 |
| 20260507173311 | 10 | 237 | 3.2 | 11.3 | 0.00 | 0.41 | 0.00 | 25 | 1011.8 |
| 20260507172411 | 10 | 224 | 3.2 | 11.3 | 0.00 | 0.41 | 0.00 | 28 | 1011.7 |
| 20260507171512 | 10 | 225 | 1.6 | 11.3 | 0.00 | 0.41 | 0.00 | 32 | 1011.9 |
| 20260507170611 | 10 | 241 | 3.2 | 9.7 | 0.00 | 0.41 | 0.00 | 33 | 1012.0 |
| 20260507165711 | 9 | 217 | 1.6 | 9.7 | 0.00 | 0.41 | 0.00 | 35 | 1012.1 |
| 20260507164811 | 8 | 211 | 3.2 | 4.8 | 0.00 | 0.41 | 0.00 | 39 | 1012.2 |
| 20260507163914 | 8 | 214 | 1.6 | 8.0 | 0.00 | 0.41 | 0.00 | 41 | 1012.3 |
| 20260507163012 | 7 | 225 | 4.8 | 8.0 | 0.00 | 0.41 | 0.00 | 42 | 1012.3 |
| 20260507162111 | 7 | 229 | 0.0 | 6.4 | 0.00 | 0.41 | 0.00 | 41 | 1012.3 |
| 20260507161211 | 6 | 217 | 0.0 | 6.4 | 0.00 | 0.41 | 0.00 | 43 | 1012.6 |
| 20260507160311 | 5 | 215 | 3.2 | 8.0 | 0.00 | 0.41 | 0.00 | 44 | 1012.7 |
| 20260507155411 | 5 | 213 | 0.0 | 11.3 | 0.00 | 0.41 | 0.00 | 43 | 1012.5 |
| 20260507154512 | 5 | 211 | 3.2 | 11.3 | 0.00 | 0.41 | 0.00 | 42 | 1012.4 |
| 20260507153612 | 5 | 217 | 3.2 | 6.4 | 0.00 | 0.41 | 0.00 | 42 | 1012.7 |
| 20260507152711 | 5 | 218 | 0.0 | 4.8 | 0.00 | 0.41 | 0.00 | 43 | 1012.6 |
| 20260507151811 | 4 | 222 | 1.6 | 8.0 | 0.00 | 0.41 | 0.00 | 44 | 1012.8 |
| 20260507150911 | 4 | 223 | 1.6 | 8.0 | 0.00 | 0.41 | 0.00 | 46 | 1012.6 |
| 20260507150011 | 3 | 214 | 4.8 | 8.0 | 0.00 | 0.41 | 0.00 | 44 | 1012.7 |
| 20260507144212 | 3 | 207 | 3.2 | 4.8 | 0.00 | 0.41 | 0.00 | 47 | 1012.4 |
| 20260507142411 | 2 | 192 | 8.0 | 14.5 | 0.00 | 0.41 | 0.00 | 41 | 1012.6 |
| 20260507141512 | 2 | 210 | 0.0 | 9.7 | 0.00 | 0.41 | 0.00 | 44 | 1012.7 |
| 20260507140611 | 1 | 231 | 3.2 | 6.4 | 0.00 | 0.41 | 0.00 | 46 | 1012.5 |
| 20260507135711 | 1 | 229 | 0.0 | 8.0 | 0.00 | 0.41 | 0.00 | 46 | 1012.5 |
| 20260507134811 | 1 | 174 | 1.6 | 8.0 | 0.00 | 0.41 | 0.00 | 45 | 1012.5 |
| 20260507133912 | 1 | 191 | 4.8 | 14.5 | 0.00 | 0.41 | 0.00 | 49 | 1012.4 |
| 20260507133012 | 0 | 181 | 0.0 | 11.3 | 0.00 | 0.41 | 0.00 | 52 | 1012.5 |
| 20260507131211 | -1 | 229 | 0.0 | 3.2 | 0.00 | 0.41 | 0.00 | 60 | 1012.4 |
| 20260507130311 | -1 | 0 | 0.0 | 0.0 | 0.00 | 0.41 | 0.00 | 56 | 1012.1 |
| 20260507124511 | -1 | 177 | 0.0 | 4.8 | 0.00 | 0.41 | 0.00 | 52 | 1011.7 |
| 20260507123611 | -1 | 211 | 0.0 | 8.0 | 0.00 | 0.41 | 0.00 | 52 | 1011.6 |
| 20260507121811 | -2 | 242 | 1.6 | 4.8 | 0.00 | 0.41 | 0.00 | 53 | 1011.3 |
| 20260507120911 | -2 | 268 | 1.6 | 4.8 | 0.00 | 0.41 | 0.00 | 57 | 1011.4 |
| 20260507113311 | -2 | 208 | 1.6 | 3.2 | 0.00 | 0.41 | 0.00 | 57 | 1011.4 |
| 20260507111511 | -2 | 241 | 0.0 | 4.8 | 0.00 | 0.41 | 0.00 | 53 | 1011.4 |
| 20260507110611 | -2 | 225 | 1.6 | 3.2 | 0.00 | 0.41 | 0.00 | 56 | 1011.4 |
| 20260507105711 | -2 | 232 | 0.0 | 6.4 | 0.00 | 0.41 | 0.00 | 56 | 1011.6 |
| 20260507104811 | -3 | 239 | 0.0 | 3.2 | 0.00 | 0.41 | 0.00 | 55 | 1011.3 |
| 20260507103911 | -2 | 219 | 0.0 | 3.2 | 0.00 | 0.41 | 0.00 | 50 | 1011.1 |
| 20260507103011 | -1 | 224 | 1.6 | 4.8 | 0.00 | 0.41 | 0.00 | 52 | 1011.1 |
| 20260507102111 | -2 | 233 | 0.0 | 3.2 | 0.00 | 0.41 | 0.00 | 51 | 1011.4 |
| 20260507100311 | -2 | 218 | 1.6 | 3.2 | 0.00 | 0.41 | 0.00 | 54 | 1011.3 |
| 20260507094511 | -3 | 221 | 0.0 | 3.2 | 0.00 | 0.41 | 0.00 | 56 | 1011.4 |
| 20260507092711 | -2 | 315 | 4.8 | 8.0 | 0.00 | 0.41 | 0.00 | 59 | 1011.4 |
| 20260507091811 | -3 | 215 | 0.0 | 3.2 | 0.00 | 0.41 | 0.00 | 61 | 1011.6 |
| 20260507090911 | -3 | 211 | 0.0 | 4.8 | 0.00 | 0.41 | 0.00 | 63 | 1011.3 |
| 20260507090011 | -3 | 208 | 0.0 | 4.8 | 0.00 | 0.41 | 0.00 | 66 | 1011.6 |
| 20260507084211 | -3 | 220 | 1.6 | 3.2 | 0.00 | 0.41 | 0.00 | 61 | 1011.4 |
| 20260507083311 | -3 | 193 | 0.0 | 1.6 | 0.00 | 0.41 | 0.00 | 60 | 1011.6 |
| 20260507082411 | -2 | 201 | 0.0 | 4.8 | 0.00 | 0.41 | 0.00 | 60 | 1011.5 |
| 20260507081511 | -3 | 198 | 1.6 | 4.8 | 0.00 | 0.41 | 0.00 | 62 | 1011.7 |
| 20260507080611 | -3 | 200 | 0.0 | 1.6 | 0.00 | 0.41 | 0.00 | 61 | 1011.4 |
| 20260507075711 | -3 | 223 | 0.0 | 4.8 | 0.00 | 0.41 | 0.00 | 61 | 1011.6 |
| 20260507074811 | -3 | 231 | 1.6 | 4.8 | 0.00 | 0.41 | 0.00 | 63 | 1011.6 |
| 20260507073912 | -3 | 210 | 0.0 | 4.8 | 0.00 | 0.41 | 0.00 | 64 | 1011.7 |
| 20260507073011 | -3 | 200 | 0.0 | 8.0 | 0.00 | 0.41 | 0.00 | 62 | 1011.6 |
| 20260507072111 | -3 | 216 | 1.6 | 4.8 | 0.00 | 0.41 | 0.00 | 61 | 1011.8 |
| 20260507071212 | -2 | 167 | 0.0 | 4.8 | 0.00 | 0.41 | 0.00 | 62 | 1011.4 |
| 20260507070311 | -3 | 199 | 0.0 | 3.2 | 0.00 | 0.41 | 0.00 | 63 | 1011.5 |